Location: Unspecified
(0.0000°N, 0.0000°E)
Time: 18:00:51
(UTC+00:00)

STARLINK 1022 - Pass Details

Date: 18 January 2020
Orbit: 549 x 551 km, 53.0° (Epoch: 23 January)

Event Time Altitude Azimuth Distance (km) Brightness Sun altitude
Rises 18:33:46 0° 312° (NW) 2,720 7.6 -5.5°
Reaches altitude 10° 18:36:06 10° 304° (NW) 1,831 6.8 -6.0°
Maximum altitude 18:39:58 37° 236° (SW) 870 5.4 -6.9°
Drops below altitude 10° 18:43:53 10° 168° (SSE) 1,847 6.4 -7.8°
Sets 18:46:15 0° 159° (SSE) 2,746 7.2 -8.4°
